TimeCDT,TemperatureF,Dew PointF,Humidity,Sea Level PressureIn,VisibilityMPH,Wind Direction,Wind SpeedMPH,Gust SpeedMPH,PrecipitationIn,Events,Conditions,WindDirDegrees,DateUTC
12:54 AM,42.1,34.0,73,30.20,10.0,North,8.1,-,N/A,,Mostly Cloudy,360,2012-10-27 05:54:00
1:54 AM,42.1,34.0,73,30.19,10.0,North,8.1,-,N/A,,Overcast,350,2012-10-27 06:54:00
2:54 AM,42.1,34.0,73,30.20,10.0,North,8.1,-,N/A,,Overcast,350,2012-10-27 07:54:00
3:54 AM,41.0,33.1,73,30.19,10.0,North,9.2,-,N/A,,Overcast,360,2012-10-27 08:54:00
4:54 AM,39.0,33.1,79,30.19,10.0,North,8.1,-,N/A,,Clear,360,2012-10-27 09:54:00
5:54 AM,39.0,32.0,76,30.19,10.0,North,8.1,-,N/A,,Clear,360,2012-10-27 10:54:00
6:54 AM,37.9,32.0,79,30.19,9.0,North,6.9,-,0.00,Snow,Light Snow,360,2012-10-27 11:54:00
7:54 AM,39.0,32.0,76,30.21,9.0,North,8.1,-,0.00,,Clear,360,2012-10-27 12:54:00
8:54 AM,42.1,34.0,73,30.22,10.0,North,8.1,-,N/A,,Clear,350,2012-10-27 13:54:00
9:54 AM,45.0,34.0,65,30.21,10.0,North,11.5,20.7,N/A,,Clear,10,2012-10-27 14:54:00
10:54 AM,48.9,36.0,61,30.20,10.0,North,10.4,19.6,N/A,,Clear,10,2012-10-27 15:54:00
11:54 AM,52.0,36.0,54,30.19,10.0,North,13.8,-,N/A,,Clear,10,2012-10-27 16:54:00
12:54 PM,54.0,34.0,47,30.16,10.0,NNE,12.7,23.0,N/A,,Clear,30,2012-10-27 17:54:00
1:54 PM,54.0,36.0,51,30.14,10.0,North,11.5,17.3,N/A,,Clear,360,2012-10-27 18:54:00
2:54 PM,55.9,35.1,45,30.13,10.0,North,15.0,21.9,N/A,,Clear,360,2012-10-27 19:54:00
3:54 PM,55.0,33.1,43,30.12,10.0,North,15.0,21.9,N/A,,Clear,10,2012-10-27 20:54:00
4:54 PM,54.0,30.9,41,30.13,10.0,North,13.8,21.9,N/A,,Clear,10,2012-10-27 21:54:00
5:54 PM,51.1,32.0,48,30.14,10.0,North,9.2,-,N/A,,Clear,360,2012-10-27 22:54:00
6:54 PM,48.9,33.1,54,30.16,10.0,North,8.1,-,N/A,,Clear,350,2012-10-27 23:54:00
7:54 PM,46.9,34.0,61,30.17,10.0,NNW,5.8,-,N/A,,Clear,340,2012-10-28 00:54:00
8:54 PM,45.0,34.0,65,30.17,10.0,North,8.1,-,N/A,,Clear,10,2012-10-28 01:54:00
9:54 PM,45.0,34.0,65,30.16,10.0,North,10.4,-,N/A,,Clear,10,2012-10-28 02:54:00
10:54 PM,44.6,33.8,66,30.15,10.0,North,10.4,-,N/A,,Clear,350,2012-10-28 03:54:00
11:54 PM,43.0,34.0,71,30.14,10.0,North,9.2,-,N/A,,Clear,360,2012-10-28 04:54:00